TimeEST,TemperatureF,Dew PointF,Humidity,Sea Level PressureIn,VisibilityMPH,Wind Direction,Wind SpeedMPH,Gust SpeedMPH,PrecipitationIn,Events,Conditions,WindDirDegrees,DateUTC
12:14 AM,30.9,26.4,83,29.86,7.0,WSW,11.5,18.4,N/A,,Overcast,250,2012-01-24 05:14:00
12:35 AM,30.9,26.6,84,29.87,7.0,WSW,13.8,20.7,N/A,,Overcast,250,2012-01-24 05:35:00
12:54 AM,30.7,26.6,85,29.87,7.0,WSW,9.2,19.6,N/A,,Overcast,240,2012-01-24 05:54:00
1:15 AM,30.7,26.6,85,29.88,7.0,WSW,11.5,18.4,N/A,,Overcast,240,2012-01-24 06:15:00
1:35 AM,30.6,26.4,85,29.88,10.0,WSW,16.1,20.7,N/A,,Overcast,250,2012-01-24 06:35:00
1:54 AM,30.7,26.4,84,29.90,10.0,WSW,11.5,17.3,N/A,,Overcast,240,2012-01-24 06:54:00
2:15 AM,30.7,26.4,84,29.90,10.0,WSW,10.4,16.1,N/A,,Overcast,250,2012-01-24 07:15:00
2:35 AM,30.7,26.4,84,29.91,10.0,WSW,10.4,19.6,N/A,,Overcast,250,2012-01-24 07:35:00
2:54 AM,30.7,26.2,83,29.92,10.0,WSW,10.4,20.7,N/A,,Overcast,250,2012-01-24 07:54:00
3:35 AM,30.6,25.7,82,29.92,10.0,WSW,12.7,17.3,N/A,,Overcast,240,2012-01-24 08:35:00
3:54 AM,30.6,25.7,82,29.92,10.0,WSW,9.2,-,N/A,,Overcast,250,2012-01-24 08:54:00
4:15 AM,30.2,25.5,83,29.93,10.0,WSW,15.0,21.9,N/A,,Overcast,240,2012-01-24 09:15:00
4:34 AM,30.2,25.5,83,29.94,10.0,WSW,10.4,16.1,N/A,,Overcast,250,2012-01-24 09:34:00
5:15 AM,30.2,25.2,82,29.95,10.0,WSW,10.4,16.1,N/A,,Overcast,240,2012-01-24 10:15:00
5:34 AM,30.2,25.0,81,29.95,10.0,SW,10.4,-,N/A,,Overcast,230,2012-01-24 10:34:00
5:55 AM,30.0,24.8,81,29.96,10.0,WSW,9.2,-,N/A,,Overcast,250,2012-01-24 10:55:00
6:14 AM,30.2,24.6,80,29.97,10.0,WSW,9.2,-,N/A,,Overcast,240,2012-01-24 11:14:00
6:35 AM,30.0,24.8,81,29.98,10.0,WSW,8.1,-,N/A,,Overcast,240,2012-01-24 11:35:00
6:55 AM,30.0,24.8,81,29.99,10.0,WSW,9.2,-,N/A,,Overcast,240,2012-01-24 11:55:00
7:14 AM,30.0,25.2,82,30.00,10.0,WSW,6.9,-,N/A,,Overcast,250,2012-01-24 12:14:00
7:35 AM,30.0,25.3,83,30.02,10.0,WSW,9.2,-,N/A,,Overcast,250,2012-01-24 12:35:00
7:55 AM,30.2,25.7,83,30.03,10.0,WSW,8.1,-,N/A,,Overcast,240,2012-01-24 12:55:00
8:14 AM,30.7,26.2,83,30.04,10.0,West,19.6,23.0,N/A,,Overcast,260,2012-01-24 13:14:00
8:35 AM,30.7,26.4,84,30.05,10.0,West,15.0,21.9,N/A,,Overcast,270,2012-01-24 13:35:00
8:55 AM,30.7,26.4,84,30.07,10.0,West,11.5,18.4,N/A,,Overcast,260,2012-01-24 13:55:00
9:14 AM,30.6,26.4,85,30.07,10.0,WSW,9.2,-,N/A,,Overcast,250,2012-01-24 14:14:00
9:35 AM,30.6,26.4,85,30.08,10.0,West,12.7,18.4,N/A,,Overcast,260,2012-01-24 14:35:00
9:55 AM,30.6,26.1,83,30.10,10.0,West,17.3,20.7,N/A,,Overcast,270,2012-01-24 14:55:00
10:14 AM,30.7,26.2,83,30.11,10.0,West,12.7,18.4,N/A,,Overcast,260,2012-01-24 15:14:00
10:35 AM,30.6,26.2,84,30.12,10.0,West,12.7,17.3,N/A,,Overcast,260,2012-01-24 15:35:00
10:54 AM,30.7,26.6,85,30.13,10.0,West,15.0,-,N/A,,Overcast,260,2012-01-24 15:54:00
11:15 AM,30.9,26.6,84,30.14,10.0,West,16.1,24.2,N/A,,Overcast,270,2012-01-24 16:15:00
11:35 AM,30.9,26.6,84,30.14,10.0,West,12.7,21.9,N/A,,Overcast,260,2012-01-24 16:35:00
11:54 AM,30.9,26.6,84,30.14,10.0,West,13.8,20.7,N/A,,Overcast,270,2012-01-24 16:54:00
12:15 PM,30.9,26.8,85,30.14,10.0,West,12.7,18.4,N/A,,Overcast,270,2012-01-24 17:15:00
12:34 PM,31.1,26.8,84,30.14,10.0,West,10.4,-,N/A,,Overcast,260,2012-01-24 17:34:00
12:55 PM,31.1,27.0,85,30.15,10.0,WNW,11.5,17.3,N/A,,Overcast,290,2012-01-24 17:55:00
1:35 PM,31.5,27.0,83,30.15,10.0,West,12.7,-,N/A,,Overcast,280,2012-01-24 18:35:00
1:55 PM,31.1,26.8,84,30.15,10.0,West,13.8,17.3,N/A,,Overcast,270,2012-01-24 18:55:00
2:14 PM,30.9,26.6,84,30.15,10.0,WNW,12.7,17.3,N/A,,Overcast,290,2012-01-24 19:14:00
2:35 PM,30.9,26.6,84,30.16,10.0,WNW,11.5,-,N/A,,Overcast,290,2012-01-24 19:35:00
2:55 PM,31.1,26.6,83,30.17,10.0,West,12.7,-,N/A,,Overcast,280,2012-01-24 19:55:00
3:14 PM,30.7,26.4,84,30.19,10.0,West,10.4,-,N/A,,Overcast,280,2012-01-24 20:14:00
3:35 PM,30.7,26.6,85,30.20,10.0,West,11.5,-,N/A,,Overcast,270,2012-01-24 20:35:00
3:55 PM,30.7,26.6,85,30.22,10.0,West,9.2,-,N/A,,Overcast,280,2012-01-24 20:55:00
4:14 PM,30.7,26.2,83,30.23,10.0,West,12.7,19.6,N/A,,Overcast,280,2012-01-24 21:14:00
4:35 PM,30.7,26.2,83,30.23,10.0,West,10.4,-,N/A,,Overcast,270,2012-01-24 21:35:00
4:55 PM,30.6,26.4,85,30.24,10.0,West,10.4,-,N/A,,Overcast,270,2012-01-24 21:55:00
5:14 PM,30.6,26.1,83,30.24,10.0,West,8.1,-,N/A,,Overcast,270,2012-01-24 22:14:00
5:55 PM,30.2,26.2,85,30.27,10.0,West,6.9,-,N/A,,Overcast,260,2012-01-24 22:55:00
6:15 PM,30.2,25.9,84,30.28,10.0,West,9.2,-,N/A,,Overcast,270,2012-01-24 23:15:00
6:35 PM,30.2,25.7,83,30.28,10.0,West,6.9,-,N/A,,Overcast,280,2012-01-24 23:35:00
6:54 PM,30.2,25.7,83,30.28,10.0,WNW,4.6,-,N/A,,Overcast,290,2012-01-24 23:54:00
7:15 PM,30.2,25.7,83,30.29,10.0,West,6.9,-,N/A,,Overcast,280,2012-01-25 00:15:00
7:35 PM,30.0,25.3,83,30.28,10.0,WNW,3.5,-,N/A,,Overcast,300,2012-01-25 00:35:00
7:54 PM,30.0,25.5,83,30.29,10.0,WNW,5.8,-,N/A,,Overcast,290,2012-01-25 00:54:00
8:35 PM,30.0,25.7,84,30.31,10.0,NW,3.5,-,N/A,,Overcast,310,2012-01-25 01:35:00
8:54 PM,30.0,25.7,84,30.31,10.0,WNW,5.8,-,N/A,,Overcast,300,2012-01-25 01:54:00
9:15 PM,30.2,25.7,83,30.31,10.0,WNW,3.5,-,N/A,,Overcast,300,2012-01-25 02:15:00
9:35 PM,30.2,25.5,83,30.32,10.0,NW,8.1,-,N/A,,Overcast,320,2012-01-25 02:35:00
10:35 PM,30.2,25.5,83,30.33,10.0,WNW,3.5,-,N/A,,Overcast,290,2012-01-25 03:35:00
10:55 PM,30.2,25.5,83,30.32,10.0,NNW,5.8,-,N/A,,Overcast,330,2012-01-25 03:55:00
11:15 PM,30.2,25.5,83,30.30,10.0,Calm,Calm,-,N/A,,Overcast,0,2012-01-25 04:15:00
11:35 PM,30.2,25.3,82,30.30,10.0,NNW,4.6,-,N/A,,Overcast,330,2012-01-25 04:35:00
11:55 PM,30.4,25.3,82,30.30,10.0,Calm,Calm,-,N/A,,Overcast,0,2012-01-25 04:55:00